Corpus Christi NAS, TX

5:59 PM CDT on May 29, 2017 (GMT -0500)
Corpus Christi Naval Air Station-Truax

Weather History for KNGP - September, 2013

Change the Weather History Date:

Tuesday, September 10, 2013

  Actual Average Record
Temperature  
Mean Temperature 82 °F -  
Max Temperature 89 °F 87 °F 93 °F (2014)
Min Temperature 75 °F 74 °F 68 °F (2011)
Cooling Degree Days 16    
Growing Degree Days 32 (Base 50)    
Moisture  
Dew Point 76 °F    
Average Humidity 91    
Maximum Humidity 100    
Minimum Humidity 70    
Precipitation  
Precipitation 2.76 in - - ()
Sea Level Pressure  
Sea Level Pressure 29.95 in    
Wind  
Wind Speed 10 mph (SE)    
Max Wind Speed 22 mph    
Max Gust Speed 48 mph    
Visibility 6 miles    
Events Rain , Thunderstorm    
Averages and records for this station are not official NWS values.
T = Trace of Precipitation, MM = Missing Value Source: NWS Daily Summary

Daily Weather History Graph

Daily Weather History Graph

Search for Another Location

Airport or City:

Trip Planner

Search our weather history database for the weather conditions in past years. The results will help you decide how hot, cold, wet, or windy it might be!

Date:

Astronomy

Sep. 10, 2013 Rise Set
Actual Time 7:12 AM CDT 7:39 PM CDT
Civil Twilight 6:48 AM CDT 8:02 PM CDT
Nautical Twilight 6:21 AM CDT 8:30 PM CDT
Astronomical Twilight 5:53 AM CDT 8:58 PM CDT
Moon 12:08 PM CDT (9/10) 11:15 PM CDT (9/10)
Length of Visible Light 13h 14m
Length of Day
12h 27m
Waxing Crescent, 28% of the Moon is Illuminated
Sep 10
Waxing Crescent
Sep 12
First Quarter
Sep 19
Full
Sep 26
Last Quarter
Oct 4
New

Hourly Weather History & Observations

Time (CDT) Temp. Heat Index Dew Point Humidity Pressure Visibility Wind Dir Wind Speed Gust Speed Precip Events Conditions
12:56 AM 80.1 °F 85.4 °F 75.9 °F 87% 29.93 in 10.0 mi SE 8.1 mph - N/A   Clear
1:56 AM 79.0 °F - 75.0 °F 88% 29.93 in 10.0 mi SE 9.2 mph - N/A   Partly Cloudy
2:56 AM 80.1 °F 85.8 °F 77.0 °F 90% 29.92 in 10.0 mi SE 8.1 mph - N/A   Clear
3:56 AM 78.1 °F - 75.9 °F 93% 29.91 in 10.0 mi ESE 4.6 mph - 0.00 in   Mostly Cloudy
4:44 AM 77.0 °F - 75.2 °F 94% 29.91 in 1.8 mi SSE 21.9 mph 25.3 mph 0.17 in Rain Heavy Rain
4:53 AM 75.2 °F - 75.2 °F 100% 29.91 in 1.2 mi South 9.2 mph - 0.35 in Rain Heavy Rain
4:56 AM 77.0 °F - 77.0 °F 100% 29.91 in 1.2 mi SSE 11.5 mph - 0.42 in Rain Heavy Rain
5:08 AM 78.8 °F - 78.8 °F 100% 29.91 in 2.0 mi South 13.8 mph 24.2 mph 0.16 in Rain Heavy Rain
5:24 AM 75.2 °F - 75.2 °F 100% 29.92 in 3.0 mi Variable 6.9 mph - 0.27 in Rain Heavy Rain
5:34 AM 75.2 °F - 75.2 °F 100% 29.92 in 1.8 mi South 10.4 mph 21.9 mph 0.43 in Rain Heavy Rain
5:41 AM 75.2 °F - 75.2 °F 100% 29.94 in 1.0 mi SSE 16.1 mph 23.0 mph 0.68 in Rain Heavy Rain
5:54 AM 75.2 °F - 75.2 °F 100% 29.93 in 1.5 mi South 10.4 mph - 1.03 in Rain Heavy Rain
5:56 AM 75.9 °F - 75.9 °F 100% 29.93 in 2.0 mi South 9.2 mph - 1.04 in Rain Heavy Rain
6:02 AM 77.0 °F - 77.0 °F 100% 29.93 in 5.0 mi South 9.2 mph 20.7 mph 0.00 in Rain , Thunderstorm Thunderstorms and Rain
6:11 AM 75.2 °F - 75.2 °F 100% 29.93 in 2.5 mi SSE 17.3 mph 25.3 mph 0.10 in Rain , Thunderstorm Heavy Thunderstorms and Rain
6:18 AM 75.2 °F - 75.2 °F 100% 29.93 in 1.8 mi SE 9.2 mph 25.3 mph 0.20 in Rain Heavy Rain
6:23 AM 77.0 °F - 75.2 °F 94% 29.93 in 3.0 mi SSE 9.2 mph 48.3 mph 0.21 in Rain Heavy Rain
6:56 AM 77.0 °F - 77.0 °F 100% 29.94 in 10.0 mi South 9.2 mph - 0.21 in   Overcast
7:00 AM 75.2 °F - 75.2 °F 100% 29.94 in 10.0 mi South 8.1 mph - N/A   Overcast
7:13 AM 77.0 °F - 75.2 °F 94% 29.95 in 7.0 mi East 15.0 mph 20.7 mph 0.00 in Rain Light Rain
7:18 AM 77.0 °F - 75.2 °F 94% 29.95 in 5.0 mi East 11.5 mph - 0.01 in Rain , Thunderstorm Light Thunderstorms and Rain
7:41 AM 77.0 °F - 75.2 °F 94% 29.95 in 0.8 mi East 16.1 mph 19.6 mph 0.02 in Rain , Thunderstorm Heavy Thunderstorms and Rain
7:56 AM 78.1 °F - 77.0 °F 96% 29.95 in 0.8 mi East 8.1 mph 21.9 mph 0.86 in Rain , Thunderstorm Heavy Thunderstorms and Rain
8:07 AM 78.8 °F - 77.0 °F 94% 29.95 in 4.0 mi SE 5.8 mph - N/A Rain , Thunderstorm Thunderstorms and Rain
8:45 AM 75.2 °F - 75.2 °F 100% 29.97 in 3.0 mi East 17.3 mph - N/A Rain Rain
8:56 AM 75.0 °F - 73.0 °F 94% 29.97 in 3.0 mi East 11.5 mph - 0.14 in Rain Light Rain
9:01 AM 75.2 °F - 73.4 °F 94% 29.97 in 3.0 mi East 9.2 mph - N/A Rain , Thunderstorm Light Thunderstorms and Rain
9:56 AM 77.0 °F - 74.3 °F 91% 29.99 in 10.0 mi WSW 5.8 mph - 0.02 in Rain , Thunderstorm Light Thunderstorms and Rain
10:39 AM 77.0 °F - 73.4 °F 89% 30.00 in 5.0 mi SSE 5.8 mph - N/A Rain Light Rain
10:56 AM 77.0 °F - 74.1 °F 91% 30.00 in 6.0 mi ESE 9.2 mph - 0.04 in Rain Light Rain
11:56 AM 80.1 °F 85.4 °F 75.7 °F 87% 30.00 in 10.0 mi SE 3.5 mph - 0.01 in Rain Light Rain
12:21 PM 80.6 °F 89.3 °F 80.6 °F 100% 30.00 in 10.0 mi Calm Calm - N/A   Mostly Cloudy
12:56 PM 80.1 °F 86.4 °F 78.1 °F 94% 29.99 in 10.0 mi WSW 6.9 mph - 0.00 in   Mostly Cloudy
1:56 PM 86.0 °F 96.9 °F 77.0 °F 74% 29.98 in 10.0 mi ESE 16.1 mph - N/A   Mostly Cloudy
2:56 PM 88.0 °F 100.2 °F 77.0 °F 70% 29.97 in 10.0 mi ESE 17.3 mph - N/A   Mostly Cloudy
3:44 PM 82.4 °F 89.5 °F 75.2 °F 79% 29.96 in 5.0 mi SSE 16.1 mph 24.2 mph 0.01 in Rain Light Rain
3:56 PM 82.0 °F 90.2 °F 77.0 °F 85% 29.95 in 10.0 mi SSE 10.4 mph - 0.01 in   Mostly Cloudy
4:56 PM 81.0 °F 86.7 °F 75.0 °F 82% 29.96 in 10.0 mi East 18.4 mph 26.5 mph N/A   Mostly Cloudy
5:00 PM 80.6 °F 86.2 °F 75.2 °F 84% 29.96 in 10.0 mi East 12.7 mph 26.5 mph N/A Rain Light Rain
5:12 PM 80.6 °F 86.2 °F 75.2 °F 84% 29.95 in 8.0 mi East 5.8 mph - 0.01 in Rain Light Rain
5:29 PM 80.6 °F 86.2 °F 75.2 °F 84% 29.95 in 10.0 mi SE 12.7 mph - 0.01 in   Mostly Cloudy
5:56 PM 82.9 °F 89.4 °F 73.9 °F 74% 29.95 in 10.0 mi ESE 12.7 mph - 0.01 in   Mostly Cloudy
6:56 PM 84.0 °F 91.9 °F 75.0 °F 74% 29.96 in 10.0 mi ESE 13.8 mph - N/A   Mostly Cloudy
7:56 PM 82.9 °F 90.8 °F 75.9 °F 79% 29.96 in 10.0 mi ESE 11.5 mph - N/A   Mostly Cloudy
8:56 PM 82.0 °F 88.6 °F 75.0 °F 79% 29.98 in 10.0 mi ESE 12.7 mph - N/A   Mostly Cloudy
9:56 PM 81.0 °F 87.9 °F 77.0 °F 88% 29.99 in 10.0 mi SE 8.1 mph - N/A   Mostly Cloudy
10:56 PM 80.1 °F 85.8 °F 77.0 °F 90% 30.00 in 10.0 mi ESE 8.1 mph - N/A   Mostly Cloudy
11:56 PM 80.1 °F 85.8 °F 77.0 °F 90% 29.99 in 10.0 mi ESE 6.9 mph - N/A   Mostly Cloudy